Weather History for Jaipur / Sanganer, India

Change the Weather History Date:

Monday, September 30, 2013

  Actual Average Record
Temperature  
Mean Temperature 78 °F -  
Max Temperature 87 °F - - ()
Min Temperature 69 °F - - ()
Cooling Degree Days 13    
Growing Degree Days 28 (Base 50)    
Moisture  
Dew Point 73 °F    
Average Humidity 81    
Maximum Humidity 99    
Minimum Humidity 53    
Precipitation  
Precipitation 0.00 in - - ()
Sea Level Pressure  
Sea Level Pressure 29.68 in    
Wind  
Wind Speed 7 mph ()    
Max Wind Speed 17 mph    
Max Gust Speed -    
Visibility 1.9 miles    
Events Rain    
T = Trace of Precipitation, MM = Missing Value Source: Averaged Metar Reports

Daily Weather History Graph

Daily Weather History Graph

Search for Another Location

Airport:

Trip Planner

Search our weather history database for the weather conditions in past years. The results will help you decide how hot, cold, wet, or windy it might be!

Date:

Astronomy

Sep. 30, 2013 Rise Set
Actual Time 6:18 AM IST 6:14 PM IST
Civil Twilight 5:55 AM IST 6:37 PM IST
Nautical Twilight 5:28 AM IST 7:04 PM IST
Astronomical Twilight 5:01 AM IST 7:31 PM IST
Moon 1:52 AM IST (9/30) 3:09 PM IST (9/30)
Length of Visible Light 12h 41m
Length of Day
11h 55m
Waning Crescent, 22% of the Moon is Illuminated
Sep 30
Waning Crescent
Oct 5
New
Oct 12
First Quarter
Oct 19
Full
Oct 27
Last Quarter

Hourly Weather History & Observations

Time (IST) Temp. Heat Index Dew Point Humidity Pressure Visibility Wind Dir Wind Speed Gust Speed Precip Events Conditions
12:00 AM 78.8 °F - 71.6 °F 78% 29.68 in 1.9 mi ENE 6.9 mph - N/A   Overcast
2:00 AM 75.2 °F - 73.4 °F 94% 29.65 in 1.9 mi Calm Calm - N/A   Overcast
2:30 AM 75 °F - 75 °F 99% 29.64 in 3 mi ESE 17.3 mph - - Rain Light Rain
3:00 AM 71.6 °F - 69.8 °F 94% 29.68 in 1.0 mi ESE 12.7 mph - N/A Rain Rain
4:00 AM 73.4 °F - 71.6 °F 94% 29.68 in 1.0 mi ENE 10.4 mph - N/A Rain Rain
5:00 AM 73.4 °F - 71.6 °F 94% 29.68 in 1.0 mi ENE 6.9 mph - N/A Rain Rain
5:30 AM 73 °F - 71 °F 92% 29.63 in 1 mi East 4.6 mph - - Rain Light Rain
6:00 AM 73.4 °F - 71.6 °F 94% 29.68 in 1.2 mi East 9.2 mph - N/A   Mostly Cloudy
7:00 AM 73.4 °F - 71.6 °F 94% 29.71 in 1.6 mi East 5.8 mph - N/A   Mostly Cloudy
8:00 AM 75.2 °F - 73.4 °F 94% 29.74 in 1.6 mi ENE 8.1 mph - N/A   Mostly Cloudy
8:30 AM 75 °F - 73 °F 92% 29.68 in 1 mi East 4.6 mph - -   Mist
9:00 AM 78.8 °F - 73.4 °F 83% 29.74 in 1.6 mi East 6.9 mph - N/A   Mostly Cloudy
10:00 AM 80.6 °F 86.2 °F 75.2 °F 84% 29.77 in 1.6 mi East 10.4 mph - N/A   Mostly Cloudy
11:00 AM 82.4 °F 89.5 °F 75.2 °F 79% 29.74 in 2.5 mi East 12.7 mph - N/A   Mostly Cloudy
12:00 PM 80.6 °F 86.2 °F 75.2 °F 84% 29.74 in 2.5 mi East 11.5 mph - N/A   Mostly Cloudy
1:00 PM 84.2 °F 92.3 °F 75.2 °F 74% 29.74 in 2.5 mi Variable 4.6 mph - N/A   Haze
2:00 PM 86.0 °F 95.1 °F 75.2 °F 70% 29.68 in 2.5 mi East 11.5 mph - N/A   Haze
2:30 PM 87 °F - 72 °F 53% 29.61 in 2 mi East 9.2 mph - -   Haze
3:00 PM 86.0 °F 93.4 °F 73.4 °F 66% 29.68 in 2.5 mi East 9.2 mph - N/A   Haze
4:00 PM 87.8 °F 95.6 °F 73.4 °F 62% 29.65 in 2.5 mi East 8.1 mph - N/A   Haze
5:00 PM 86.0 °F 93.4 °F 73.4 °F 66% 29.65 in 2.5 mi East 9.2 mph - N/A   Haze
5:30 PM 84 °F - 73 °F 63% 29.57 in 2 mi East 6.9 mph - -   Haze
6:00 PM 84.2 °F 90.9 °F 73.4 °F 70% 29.65 in 2.5 mi Calm Calm - N/A   Haze
8:00 PM 80.6 °F 85.4 °F 73.4 °F 79% 29.68 in 1.9 mi Calm Calm - N/A   Haze
8:30 PM 81 °F - 73 °F 71% 29.64 in 2 mi ENE 2.3 mph - -   Haze
9:00 PM 80.6 °F 85.4 °F 73.4 °F 79% 29.71 in 1.9 mi ENE 3.5 mph - N/A   Haze
10:00 PM 80.6 °F 85.4 °F 73.4 °F 79% 29.74 in 1.9 mi ENE 8.1 mph - N/A   Haze
11:00 PM 78.8 °F - 73.4 °F 83% 29.74 in 1.9 mi ENE 8.1 mph - N/A   Haze
11:30 PM 79 °F - 74 °F 79% 29.68 in 1 mi ENE 6.9 mph - -   Mist